Orbital Elements at Epoch 2459000.5 (2020-May-31.0) TDB
Reference: JPL 22 (heliocentric ecliptic J2000)
Element | Value | Uncertainty (1-sigma) | Units |
e | .1219650818999444 | 9.1562e-08 | |
a | 2.533241494908842 | 1.1567e-08 | au |
q | 2.224274488509947 | 2.344e-07 | au |
i | 14.51653253446931 | 8.8594e-06 | deg |
node | 332.0619134137852 | 1.3767e-05 | deg |
peri | 126.9883642009022 | 9.1266e-05 | deg |
M | 331.0051292001401 | 8.1542e-05 | deg |
tp | 2459119.112919011215 (2020-Sep-26.61291901) | 0.00033347 | TDB |
period | 1472.696710352085 4.03 | 1.0087e-05 2.762e-08 | d yr |
n | .2444495173170672 | 1.6742e-09 | deg/d |
Q | 2.842208501307737 | 1.2978e-08 | au |
|
| | Orbit Determination Parameters
Additional Information
|